Location: *
(48.8489°N, 2.3218°E)
Time: 05:41:24
(UTC+00:00)

Cosmos 2322 - Pass Details

Date: 23 August 2019
Orbit: 838 x 857 km, 71.0° (Epoch: 21 September)

Event Time Altitude Azimuth Distance (km) Brightness Sun altitude
Rises 22:40:06 0° 334° (NNW) 3,434 8.1 -27.7°
Reaches altitude 10° 22:42:41 10° 341° (NNW) 2,496 7.1 -27.9°
Maximum altitude 22:48:10 44° 53° (NE) 1,170 4.5 -28.2°
Enters shadow 22:48:49 42° 72° (ENE) 1,199 4.4 -28.2°
